• In Latvia
  • List of Countries
  • For 7 days
  • Water Temperature
  • Satellite Maps
  • Weather Map
  • Weather Widgets
  • user-avatar
    Login

    Hourly Weather Benguela

    Today, 19 February, Sunday

    Time Temperature Precipitation Wind Pressure Humidity
    00:00 +27°C° 0 mm 1 mps 759 mmHg 86%
    01:00 +26°C° 0 mm 1 mps 759 mmHg 87%
    02:00 +26°C° 0 mm 1 mps 759 mmHg 88%
    03:00 +26°C° 0 mm 1 mps 759 mmHg 89%
    04:00 +26°C° 0 mm 1 mps 759 mmHg 90%
    05:00 +26°C° 0 mm 1 mps 759 mmHg 88%
    06:00 +27°C° 0 mm 1 mps 759 mmHg 86%
    07:00 +25°C° 0 mm 0 mps 760 mmHg 82%
    08:00 +29°C° 0 mm 1 mps 760 mmHg 70%
    09:00 +32°C° 0 mm 1 mps 760 mmHg 58%
    10:00 +35°C° 0 mm 2 mps 760 mmHg 46%
    11:00 +36°C° 0 mm 3 mps 759 mmHg 42%
    12:00 +37°C° 0 mm 4 mps 759 mmHg 38%
    13:00 +37°C° 0 mm 4 mps 758 mmHg 40%
    14:00 +37°C° 0 mm 5 mps 758 mmHg 41%
    15:00 +37°C° 0 mm 5 mps 758 mmHg 42%
    16:00 +36°C° 0 mm 5 mps 757 mmHg 42%
    17:00 +34°C° 0 mm 5 mps 757 mmHg 51%
    18:00 +32°C° 0 mm 4 mps 758 mmHg 60%
    19:00 +29°C° 0 mm 4 mps 758 mmHg 68%
    20:00 +28°C° 0 mm 3 mps 759 mmHg 72%
    21:00 +28°C° 0 mm 3 mps 759 mmHg 77%
    22:00 +27°C° 0 mm 2 mps 760 mmHg 81%
    23:00 +27°C° 0 mm 2 mps 760 mmHg 82%

    Tomorrow, 20 February, Monday

    Time Temperature Precipitation Wind Pressure Humidity
    00:00 +26°C° 0 mm 2 mps 759 mmHg 83%
    01:00 +26°C° 0 mm 2 mps 759 mmHg 84%
    02:00 +26°C° 0 mm 2 mps 759 mmHg 82%
    03:00 +27°C° 0 mm 1 mps 759 mmHg 81%
    04:00 +27°C° 0 mm 1 mps 758 mmHg 79%
    05:00 +27°C° 0 mm 1 mps 759 mmHg 77%
    06:00 +27°C° 0 mm 1 mps 759 mmHg 76%
    07:00 +28°C° 0 mm 1 mps 759 mmHg 74%
    08:00 +30°C° 0 mm 2 mps 759 mmHg 64%
    09:00 +32°C° 0 mm 2 mps 759 mmHg 54%
    10:00 +34°C° 0 mm 3 mps 759 mmHg 44%
    11:00 +35°C° 0 mm 3 mps 759 mmHg 43%
    12:00 +36°C° 0 mm 4 mps 758 mmHg 41%
    13:00 +37°C° 0 mm 5 mps 758 mmHg 40%
    14:00 +36°C° 0 mm 5 mps 758 mmHg 43%
    15:00 +36°C° 0 mm 5 mps 757 mmHg 45%
    16:00 +35°C° 0 mm 5 mps 757 mmHg 48%
    17:00 +33°C° 0 mm 5 mps 757 mmHg 56%
    18:00 +30°C° 0 mm 4 mps 758 mmHg 65%
    19:00 +28°C° 0 mm 4 mps 759 mmHg 73%
    20:00 +28°C° 0 mm 3 mps 759 mmHg 77%
    21:00 +27°C° 0 mm 3 mps 760 mmHg 81%
    22:00 +27°C° 0 mm 2 mps 760 mmHg 85%
    23:00 +26°C° 0 mm 2 mps 760 mmHg 86%

    Day after tomorrow, 21 February, Tuesday

    Time Temperature Precipitation Wind Pressure Humidity
    00:00 +26°C° 0 mm 2 mps 760 mmHg 87%
    01:00 +26°C° 0 mm 1 mps 760 mmHg 88%
    02:00 +26°C° 0 mm 1 mps 759 mmHg 88%
    03:00 +26°C° 0 mm 1 mps 759 mmHg 88%
    04:00 +26°C° 0 mm 1 mps 759 mmHg 88%
    05:00 +26°C° 0 mm 1 mps 759 mmHg 86%
    06:00 +26°C° 0 mm 1 mps 759 mmHg 84%
    07:00 +27°C° 0 mm 1 mps 759 mmHg 82%
    08:00 +29°C° 0 mm 1 mps 759 mmHg 72%
    09:00 +31°C° 0 mm 1 mps 760 mmHg 62%
    10:00 +34°C° 0 mm 2 mps 760 mmHg 51%
    11:00 +35°C° 0 mm 3 mps 759 mmHg 47%
    12:00 +36°C° 0 mm 4 mps 758 mmHg 44%
    13:00 +37°C° 0 mm 5 mps 757 mmHg 40%
    14:00 +37°C° 0 mm 5 mps 757 mmHg 42%
    15:00 +36°C° 0 mm 5 mps 756 mmHg 44%
    16:00 +36°C° 0 mm 5 mps 756 mmHg 46%
    17:00 +34°C° 0 mm 5 mps 756 mmHg 54%
    18:00 +32°C° 0 mm 4 mps 757 mmHg 62%
    19:00 +29°C° 0 mm 3 mps 757 mmHg 70%
    20:00 +29°C° 0 mm 3 mps 758 mmHg 73%
    21:00 +28°C° 0 mm 3 mps 758 mmHg 77%
    22:00 +28°C° 0 mm 2 mps 759 mmHg 80%
    23:00 +27°C° 0 mm 2 mps 759 mmHg 81%

    22 February, Wednesday

    Time Temperature Precipitation Wind Pressure Humidity
    00:00 +27°C° 0 mm 2 mps 758 mmHg 81%
    01:00 +27°C° 0 mm 2 mps 758 mmHg 82%
    02:00 +27°C° 0 mm 2 mps 758 mmHg 83%
    03:00 +26°C° 0 mm 2 mps 758 mmHg 84%
    04:00 +26°C° 0 mm 2 mps 757 mmHg 85%
    05:00 +26°C° 0 mm 2 mps 758 mmHg 84%
    06:00 +27°C° 0 mm 2 mps 758 mmHg 82%
    07:00 +27°C° 0 mm 2 mps 758 mmHg 81%
    08:00 +29°C° 0 mm 2 mps 759 mmHg 68%
    09:00 +32°C° 0 mm 2 mps 759 mmHg 55%
    10:00 +35°C° 0 mm 3 mps 759 mmHg 42%
    11:00 +36°C° 0 mm 4 mps 759 mmHg 41%
    12:00 +36°C° 0 mm 5 mps 758 mmHg 40%
    13:00 +38°C° 0 mm 6 mps 757 mmHg 40%
    14:00 +36°C° 0 mm 6 mps 757 mmHg 42%
    15:00 +35°C° 0 mm 5 mps 756 mmHg 45%
    16:00 +35°C° 0 mm 5 mps 756 mmHg 48%
    17:00 +33°C° 0 mm 4 mps 756 mmHg 56%
    18:00 +30°C° 0 mm 4 mps 757 mmHg 64%
    19:00 +28°C° 0 mm 3 mps 758 mmHg 73%
    20:00 +27°C° 0 mm 3 mps 758 mmHg 77%
    21:00 +27°C° 0 mm 2 mps 759 mmHg 81%
    22:00 +26°C° 0 mm 2 mps 759 mmHg 84%
    23:00 +26°C° 0 mm 2 mps 759 mmHg 85%

    23 February, Thursday

    Time Temperature Precipitation Wind Pressure Humidity
    00:00 +25°C° 0 mm 2 mps 759 mmHg 86%
    01:00 +25°C° 0 mm 2 mps 758 mmHg 87%
    02:00 +25°C° 0 mm 2 mps 758 mmHg 88%
    03:00 +25°C° 0 mm 2 mps 758 mmHg 89%
    04:00 +24°C° 0 mm 2 mps 758 mmHg 91%
    05:00 +25°C° 0 mm 2 mps 758 mmHg 88%
    06:00 +26°C° 0 mm 2 mps 758 mmHg 85%
    07:00 +26°C° 0 mm 2 mps 759 mmHg 82%
    08:00 +29°C° 0 mm 2 mps 759 mmHg 67%
    09:00 +31°C° 0 mm 2 mps 759 mmHg 52%
    10:00 +35°C° 0 mm 2 mps 759 mmHg 38%
    11:00 +36°C° 0 mm 3 mps 758 mmHg 35%
    12:00 +37°C° 0 mm 4 mps 757 mmHg 32%
    13:00 +39°C° 0 mm 5 mps 757 mmHg 30%
    14:00 +39°C° 0 mm 5 mps 756 mmHg 31%
    15:00 +37°C° 0 mm 5 mps 756 mmHg 32%
    16:00 +37°C° 0 mm 5 mps 755 mmHg 34%
    17:00 +34°C° 0 mm 5 mps 756 mmHg 42%
    18:00 +32°C° 0 mm 5 mps 756 mmHg 51%
    19:00 +29°C° 0 mm 4 mps 757 mmHg 59%
    20:00 +28°C° 0 mm 4 mps 757 mmHg 65%
    21:00 +27°C° 0 mm 3 mps 758 mmHg 71%
    22:00 +26°C° 0 mm 3 mps 758 mmHg 77%
    23:00 +26°C° 0 mm 3 mps 758 mmHg 78%

    24 February, Friday

    Time Temperature Precipitation Wind Pressure Humidity
    00:00 +26°C° 0 mm 3 mps 757 mmHg 79%
    01:00 +25°C° 0 mm 2 mps 757 mmHg 80%
    02:00 +25°C° 0 mm 2 mps 757 mmHg 81%
    03:00 +25°C° 0 mm 2 mps 757 mmHg 82%
    04:00 +24°C° 0 mm 2 mps 757 mmHg 83%
    05:00 +25°C° 0 mm 2 mps 757 mmHg 81%
    06:00 +26°C° 0 mm 2 mps 757 mmHg 79%
    07:00 +26°C° 0 mm 1 mps 758 mmHg 77%
    08:00 +29°C° 0 mm 2 mps 758 mmHg 66%
    09:00 +31°C° 0 mm 2 mps 758 mmHg 54%
    10:00 +34°C° 0 mm 2 mps 758 mmHg 43%
    11:00 +35°C° 0 mm 3 mps 757 mmHg 41%
    12:00 +36°C° 0 mm 4 mps 757 mmHg 39%
    13:00 +37°C° 0 mm 5 mps 756 mmHg 37%
    14:00 +36°C° 0 mm 5 mps 756 mmHg 40%
    15:00 +36°C° 0 mm 5 mps 756 mmHg 43%
    16:00 +35°C° 0 mm 6 mps 755 mmHg 46%
    17:00 +33°C° 0 mm 5 mps 756 mmHg 55%
    18:00 +30°C° 0 mm 5 mps 757 mmHg 64%
    19:00 +28°C° 0 mm 4 mps 757 mmHg 72%
    20:00 +27°C° 0 mm 4 mps 757 mmHg 76%
    21:00 +26°C° 0 mm 3 mps 758 mmHg 80%
    22:00 +26°C° 0 mm 3 mps 758 mmHg 84%
    23:00 +25°C° 0 mm 3 mps 758 mmHg 84%
    Show more